EW8187 Weather Reports


Display with metric or nautical units.
time (UTC)temp
F
wind
direction
speed
MPH
gust
MPH
rain 1hr
in
rain 24hr
in
rain mn
in
humidity
%
barometer
mb
20260902090030 60 174 0.0 0.0 0.00 0.00 0.00 58 1016.4
20260902084532 60 178 0.0 0.0 0.00 0.00 0.00 55 1016.5
20260902083034 61 140 0.0 0.0 0.00 0.00 0.00 51 1016.6
20260902081524 61 127 0.0 0.0 0.00 0.00 0.00 50 1016.6
20260902080021 62 126 0.0 1.0 0.00 0.00 0.00 51 1016.5
20260902074525 61 154 0.0 1.0 0.00 0.00 0.00 51 1016.3
20260902073020 62 241 0.0 0.0 0.00 0.00 0.00 55 1016.2
20260902071515 63 203 0.0 1.0 0.00 0.00 0.00 58 1016.1
20260902070011 63 116 0.0 1.0 0.00 0.00 0.00 53 1016.0
20260902064511 63 158 0.0 1.0 0.00 0.00 0.00 57 1015.8
20260902063009 63 141 0.0 1.0 0.00 0.00 0.00 62 1015.8
20260902061518 64 137 0.0 0.0 0.00 0.00 0.00 65 1015.8
20260902060011 64 137 0.0 0.0 0.00 0.00 0.00 67 1015.7
20260902054507 65 143 0.0 1.0 0.00 0.00 0.00 67 1015.7
20260902053008 65 155 0.0 1.0 0.00 0.00 0.00 68 1015.8
20260902051506 65 249 0.0 0.0 0.00 0.00 0.00 66 1015.7
20260902050008 65 131 0.0 0.0 0.00 0.00 0.00 66 1015.5
20260902044506 66 131 0.0 0.0 0.00 0.00 0.00 66 1015.5
20260902043011 67 119 0.0 1.0 0.00 0.00 0.00 66 1015.3
20260902041505 68 123 0.0 1.0 0.00 0.00 0.00 64 1015.0
20260902040005 68 72 0.0 1.0 0.00 0.00 0.00 62 1014.6
20260902034504 69 105 0.0 7.0 0.00 0.00 0.00 61 1014.5
20260902033003 70 56 0.0 2.0 0.00 0.00 0.00 61 1014.1
20260902031503 71 66 0.0 4.0 0.00 0.00 0.00 60 1014.0
20260902030002 72 83 1.0 6.0 0.00 0.00 0.00 58 1013.9
20260902024501 72 129 1.0 6.0 0.00 0.00 0.00 56 1013.7
20260902023001 73 53 0.0 7.0 0.00 0.00 0.00 54 1013.6
20260902021606 74 259 0.0 8.0 0.00 0.00 0.00 53 1013.5
20260902020106 76 155 1.0 8.0 0.00 0.00 0.00 52 1013.4
20260902014559 77 13 2.0 12.0 0.00 0.00 0.00 49 1013.5
20260902013059 78 39 3.0 10.0 0.00 0.00 0.00 47 1013.5
20260902011607 79 239 2.0 9.0 0.00 0.00 0.00 46 1013.6
20260902010055 80 75 3.0 13.0 0.00 0.00 0.00 45 1013.8
20260902004555 81 108 2.0 9.0 0.00 0.00 0.00 44 1013.8
20260902003054 82 70 1.0 16.0 0.00 0.00 0.00 42 1013.9
20260902001605 82 8 4.0 13.0 0.00 0.00 0.00 41 1013.9
20260902000052 83 41 6.0 14.0 0.00 0.00 0.00 40 1014.0
20260901234603 83 326 4.0 12.0 0.00 0.00 0.00 38 1013.9
20260901233104 84 42 4.0 13.0 0.00 0.00 0.00 36 1013.9
20260901231551 85 37 5.0 12.0 0.00 0.00 0.00 35 1013.7
20260901230050 86 88 2.0 12.0 0.00 0.00 0.00 30 1014.0
20260901224552 85 30 1.0 16.0 0.00 0.00 0.00 31 1014.1
20260901223048 86 71 4.0 11.0 0.00 0.00 0.00 31 1014.1
20260901221545 86 207 4.0 17.0 0.00 0.00 0.00 28 1014.2
20260901220044 86 188 3.0 15.0 0.00 0.00 0.00 31 1014.3
20260901214544 85 28 5.0 13.0 0.00 0.00 0.00 33 1014.4
20260901213059 86 30 6.0 14.0 0.00 0.00 0.00 29 1014.5
20260901211539 86 84 7.0 0.0 0.00 0.00 0.00 29 1014.6
20260901210038 86 282 2.0 12.0 0.00 0.00 0.00 29 1014.8
20260901204535 85 40 6.0 12.0 0.00 0.00 0.00 30 1014.9
20260901203045 85 32 6.0 14.0 0.00 0.00 0.00 29 1015.0
20260901201532 84 77 7.0 14.0 0.00 0.00 0.00 27 1015.2
20260901200038 84 43 2.0 11.0 0.00 0.00 0.00 32 1015.4
20260901194526 83 34 3.0 9.0 0.00 0.00 0.00 31 1015.6
20260901193025 82 29 4.0 10.0 0.00 0.00 0.00 33 1015.7
20260901191521 82 49 3.0 8.0 0.00 0.00 0.00 34 1015.8
20260901190026 81 75 5.0 9.0 0.00 0.00 0.00 33 1016.0
20260901184517 80 12 0.0 9.0 0.00 0.00 0.00 39 1016.1
20260901183017 79 30 2.0 10.0 0.00 0.00 0.00 40 1016.3
20260901181518 78 41 4.0 9.0 0.00 0.00 0.00 43 1016.3
20260901180010 77 71 3.0 8.0 0.00 0.00 0.00 51 1016.3
20260901174507 76 68 1.0 6.0 0.00 0.00 0.00 55 1016.3
20260901173003 75 342 2.0 6.0 0.00 0.00 0.00 61 1016.1
20260901171502 75 32 1.0 4.0 0.00 0.00 0.00 62 1016.1
20260901164603 73 58 0.0 5.0 0.00 0.00 0.00 66 1015.9
20260901163057 72 4 1.0 4.0 0.00 0.00 0.00 68 1015.9
20260901161554 72 37 1.0 4.0 0.00 0.00 0.00 68 1015.9
20260901160058 72 264 0.0 3.0 0.00 0.00 0.00 68 1015.8
20260901154558 71 343 0.0 2.0 0.00 0.00 0.00 69 1015.7
20260901153052 70 338 0.0 2.0 0.00 0.00 0.00 71 1015.8
20260901151545 69 329 0.0 2.0 0.00 0.00 0.00 70 1015.8
20260901150042 68 3 0.0 0.0 0.00 0.00 0.00 65 1015.7
20260901144543 66 21 0.0 0.0 0.00 0.00 0.00 68 1015.7
20260901143043 64 142 0.0 0.0 0.00 0.00 0.00 69 1015.5
20260901141545 63 142 0.0 0.0 0.00 0.00 0.00 68 1015.2
20260901140035 62 142 0.0 0.0 0.00 0.00 0.00 68 1015.1
20260901134534 61 148 0.0 0.0 0.00 0.00 0.00 69 1014.9
20260901133033 61 152 0.0 0.0 0.00 0.00 0.00 70 1014.7
20260901131532 61 152 0.0 0.0 0.00 0.00 0.00 72 1014.5
20260901130030 61 152 0.0 0.0 0.00 0.00 0.00 72 1014.5
20260901124530 61 156 0.0 0.0 0.00 0.00 0.00 74 1014.4
20260901123036 61 167 0.0 0.0 0.00 0.00 0.00 76 1014.4
20260901121530 62 229 0.0 0.0 0.00 0.00 0.00 76 1014.5
20260901120026 62 236 0.0 0.0 0.00 0.00 0.00 75 1014.6
20260901114524 62 233 0.0 0.0 0.00 0.00 0.00 72 1014.8
20260901113024 62 178 0.0 0.0 0.00 0.00 0.00 63 1014.7
20260901111522 62 176 0.0 0.0 0.00 0.00 0.00 58 1014.7
20260901110022 62 153 0.0 0.0 0.00 0.00 0.00 57 1014.5
20260901104527 62 153 0.0 0.0 0.00 0.00 0.00 60 1014.6
20260901103018 63 140 0.0 0.0 0.00 0.00 0.00 66 1014.6
20260901101516 62 156 0.0 0.0 0.00 0.00 0.00 68 1014.6
20260901100015 62 257 0.0 0.0 0.00 0.00 0.00 68 1014.6
20260901094513 63 267 0.0 0.0 0.00 0.00 0.00 67 1014.6
20260901093012 64 268 0.0 0.0 0.00 0.00 0.00 66 1014.7
20260901091516 64 277 0.0 0.0 0.00 0.00 0.00 68 1014.7